GFSNE_850_dewp_132.txt.gz
Dewpoint
9 10 11 10 10 8 8 7 6 7 7 7 6 7 7 6 6 7 7 7 8 8 8 6 5 6 6 6 6 6 6 6 5 4 3 1 -2 -13
9 10 10 10 10 9 8 7 7 6 7 7 7 6 7 7 6 7 7 8 8 7 8 8 6 6 6 6 6 6 5 5 4 1 -7 -11 -10 -10
10 9 10 10 10 9 9 8 7 6 7 7 7 7 7 7 6 7 8 7 7 7 8 7 6 6 6 6 6 4 4 2 -1 -8 -7 -11 -25 -30
10 10 10 9 9 9 9 8 8 7 6 6 7 8 8 8 7 7 8 8 8 8 7 6 6 6 5 4 4 3 -0 -9 -6 -8 -21 -28 -37 -33
9 9 9 9 10 9 9 9 8 8 7 6 6 8 8 8 8 7 8 7 7 7 6 4 5 4 3 2 0 -6 -5 -5 -14 -29 -38 -35 -30 -30
9 9 9 9 9 9 9 9 9 9 8 7 7 7 8 8 7 7 5 6 6 5 3 4 3 2 1 -1 -8 -4 -9 -9 -16 -38 -34 -30 -28 -30
9 9 9 9 9 9 9 9 9 9 8 7 7 7 7 7 7 6 5 6 5 4 3 1 1 -0 -1 -2 -3 -5 -7 -35 -36 -34 -29 -28 -28 -30
10 9 9 9 9 9 9 9 8 8 9 8 7 7 7 7 7 6 5 5 3 2 1 1 -0 -2 -5 -7 -6 -7 -28 -35 -32 -28 -28 -26 -28 -27
10 9 9 9 9 9 9 9 8 8 9 8 8 7 7 6 5 6 6 5 4 4 0 -1 -3 -6 -6 -7 -7 -16 -35 -31 -27 -27 -26 -23 -27 -22
9 9 9 9 9 9 9 9 9 9 8 8 8 8 7 6 7 6 5 5 2 1 -1 -2 -6 -8 -6 -8 -21 -29 -31 -26 -26 -25 -23 -25 -24 -17
9 9 9 9 9 8 8 8 9 8 8 8 7 7 7 7 6 6 4 4 0 -2 -2 -4 -5 -6 -10 -20 -24 -25 -23 -23 -23 -22 -24 -25 -19 -16
9 9 9 8 8 8 7 9 8 8 7 7 7 6 6 6 5 4 4 3 0 -3 -4 -5 -5 -7 -19 -20 -21 -20 -19 -18 -19 -20 -21 -19 -17 -16
8 8 8 8 7 6 6 8 8 7 8 7 7 6 5 4 3 3 1 -0 -1 -1 -3 -4 -6 -22 -29 -23 -20 -18 -17 -16 -16 -15 -16 -15 -16 -18
8 7 7 7 5 4 5 6 7 7 6 5 3 3 1 -0 -1 -1 -2 -3 -3 -5 -5 -15 -34 -34 -33 -24 -20 -16 -15 -15 -15 -15 -16 -17 -18 -18
6 6 6 5 4 3 3 3 4 4 3 2 2 -0 -1 -1 -2 -3 -3 -5 -22 -38 -39 -38 -36 -33 -25 -22 -21 -17 -15 -15 -15 -16 -17 -18 -19 -20
5 5 4 2 2 3 2 2 2 2 2 1 -1 -3 -3 -3 -3 -9 -24 -37 -39 -39 -36 -34 -30 -25 -21 -20 -19 -17 -16 -16 -16 -17 -18 -19 -20 -21
4 3 1 -0 0 0 -1 -0 -0 -1 -1 -2 -3 -6 -8 -10 -18 -34 -37 -38 -38 -36 -32 -30 -28 -24 -19 -19 -19 -18 -17 -17 -18 -19 -21 -21 -20 -19
2 1 -1 -2 -1 -2 -2 -3 -4 -3 -3 -4 -5 -10 -19 -29 -34 -32 -34 -34 -35 -34 -34 -31 -29 -26 -22 -18 -16 -17 -16 -17 -17 -18 -20 -22 -19 -16
1 -2 -2 -3 -4 -5 -5 -5 -5 -5 -6 -6 -7 -12 -28 -33 -32 -32 -33 -34 -34 -32 -32 -31 -28 -25 -21 -16 -15 -15 -16 -16 -17 -18 -18 -18 -20 -17
-4 -5 -5 -6 -7 -7 -7 -7 -7 -7 -8 -10 -18 -31 -32 -33 -32 -32 -32 -32 -32 -32 -33 -33 -29 -25 -22 -20 -17 -16 -16 -17 -17 -18 -18 -17 -18 -16
-8 -7 -7 -7 -7 -7 -7 -7 -8 -10 -17 -31 -32 -31 -31 -32 -31 -31 -30 -30 -31 -29 -28 -30 -30 -30 -27 -23 -21 -18 -16 -15 -16 -16 -14 -15 -17 -17
-8 -8 -8 -8 -7 -8 -8 -9 -20 -29 -31 -31 -30 -29 -29 -30 -31 -30 -29 -29 -27 -26 -27 -27 -27 -27 -27 -26 -19 -16 -16 -15 -14 -13 -14 -15 -13 -12
-9 -9 -9 -9 -9 -10 -19 -31 -32 -30 -30 -31 -31 -32 -32 -32 -31 -30 -30 -28 -28 -28 -27 -26 -26 -26 -25 -21 -21 -20 -17 -15 -15 -17 -12 -11 -11 -11

GFSNE_850_dewp_135.txt.gz
Dewpoint
11 11 9 8 9 10 9 8 8 8 8 8 7 6 7 7 5 6 7 7 6 3 4 6 7 6 6 6 6 6 6 6 5 6 5 4 1 -4
11 10 8 9 10 10 10 9 8 8 8 7 7 6 6 7 7 6 6 7 7 8 7 7 7 7 6 6 6 6 6 6 5 4 3 1 -2 -5
9 9 9 9 9 10 10 10 9 8 8 7 7 6 6 7 7 6 6 6 7 7 8 7 8 8 6 6 6 5 5 4 4 3 -3 -5 -6 -21
9 9 9 9 9 10 10 10 9 8 8 7 7 7 7 7 8 7 7 7 8 8 8 8 8 7 7 5 5 5 4 3 3 -0 -5 -15 -29 -34
9 10 9 9 10 10 10 9 9 9 8 8 7 7 7 7 7 8 8 7 7 7 7 7 7 7 6 5 4 3 2 2 -1 -3 -21 -30 -34 -31
10 9 9 10 9 9 9 9 9 8 8 8 8 7 7 7 6 7 7 6 7 7 6 5 6 5 5 4 2 1 -1 -1 -3 -8 -34 -33 -30 -30
9 9 9 9 9 9 9 9 8 8 8 8 8 7 7 6 6 6 6 6 5 5 4 3 4 4 3 3 1 -0 -2 -3 -11 -36 -32 -29 -28 -29
9 9 9 10 9 9 8 9 9 8 8 8 8 7 7 7 7 6 6 5 2 3 2 2 2 2 1 1 -1 -2 -3 -5 -22 -32 -28 -28 -26 -28
9 10 9 9 9 9 9 9 9 9 9 8 8 7 7 7 7 7 7 6 6 4 2 1 1 1 -1 -2 -3 -3 -5 -21 -31 -28 -27 -26 -25 -25
9 10 9 9 9 9 9 9 9 9 9 9 9 8 7 7 7 7 7 6 4 2 1 -0 -1 -1 -3 -4 -5 -5 -17 -31 -27 -26 -26 -23 -24 -23
10 10 8 9 9 9 9 9 9 8 8 9 9 8 8 8 8 7 6 6 2 1 -0 -0 -1 -3 -5 -6 -6 -11 -24 -26 -24 -25 -23 -23 -24 -20
9 8 9 9 9 9 9 8 8 8 8 8 8 8 7 7 7 6 7 6 5 -0 -0 -1 -3 -4 -7 -8 -9 -20 -23 -20 -22 -21 -21 -24 -23 -19
8 8 8 9 9 8 8 8 8 8 7 7 6 6 7 4 5 5 5 5 5 4 2 -0 -3 -4 -5 -7 -12 -20 -20 -17 -17 -17 -18 -19 -19 -18
8 8 8 8 8 7 7 6 5 6 5 4 3 3 5 4 5 3 2 2 1 1 1 -1 -2 -3 -4 -18 -21 -20 -18 -16 -15 -15 -16 -17 -18 -18
8 8 8 7 7 7 5 3 3 3 3 3 3 2 2 3 1 -0 -1 -0 -1 -1 -2 -3 -4 -6 -19 -30 -27 -22 -19 -16 -15 -15 -16 -17 -18 -19
7 7 7 6 6 5 4 2 1 1 2 3 2 1 0 -0 -1 -1 -1 -2 -3 -5 -8 -24 -36 -32 -31 -25 -22 -21 -17 -15 -16 -16 -16 -18 -19 -20
7 5 4 4 3 2 1 -0 -0 0 1 1 0 -1 -1 -2 -3 -4 -4 -6 -8 -15 -25 -32 -28 -25 -21 -20 -19 -18 -16 -15 -16 -17 -18 -19 -19 -19
2 5 3 2 2 0 -1 -1 -1 -1 -1 -2 -3 -3 -4 -4 -6 -10 -12 -24 -31 -32 -31 -28 -27 -23 -19 -18 -17 -16 -16 -16 -17 -18 -20 -21 -18 -17
-4 0 2 -0 -1 -1 -2 -2 -3 -3 -3 -3 -3 -5 -6 -7 -13 -33 -34 -34 -33 -32 -31 -31 -29 -26 -24 -19 -16 -14 -15 -16 -17 -18 -18 -19 -20 -18
-6 -6 -4 -3 -3 -4 -4 -4 -5 -5 -6 -6 -7 -8 -10 -10 -13 -27 -32 -34 -34 -34 -35 -32 -30 -29 -25 -22 -20 -19 -18 -17 -17 -17 -17 -17 -18 -20
-8 -8 -8 -8 -7 -7 -6 -6 -6 -7 -7 -7 -8 -9 -15 -29 -32 -32 -33 -33 -34 -33 -35 -34 -32 -31 -30 -27 -21 -18 -17 -17 -17 -16 -16 -17 -18 -19
-8 -9 -10 -9 -8 -7 -7 -7 -8 -8 -9 -12 -24 -30 -31 -33 -33 -32 -32 -32 -30 -30 -31 -30 -30 -30 -29 -30 -27 -22 -18 -16 -15 -14 -14 -15 -16 -15
-9 -9 -9 -8 -8 -8 -8 -9 -9 -13 -25 -30 -31 -30 -30 -30 -30 -30 -30 -29 -30 -30 -29 -28 -26 -26 -26 -24 -24 -22 -22 -20 -17 -16 -15 -14 -14 -12

GFSNE_850_dewp_141.txt.gz
Dewpoint
11 11 12 12 11 11 11 10 10 10 9 8 8 8 8 8 8 6 5 5 3 2 3 4 6 6 7 7 7 7 7 5 6 6 6 5 5 4
11 11 12 12 11 11 11 11 10 10 10 8 8 7 8 8 8 7 5 5 4 3 2 4 5 7 7 7 7 6 6 6 6 6 6 5 5 4
11 11 11 12 11 11 11 11 11 10 10 9 9 8 8 8 8 8 7 4 5 5 4 3 3 5 7 6 6 6 6 6 6 6 5 5 4 3
10 11 11 12 11 12 11 10 11 10 10 9 9 9 9 9 8 9 7 6 5 6 4 5 4 3 3 4 6 6 7 6 6 5 5 4 3 1
10 11 10 11 11 11 11 10 10 9 9 10 9 9 9 9 8 8 8 7 7 7 5 7 7 7 5 5 5 6 6 6 5 5 4 4 2 -2
11 11 11 11 11 11 10 9 8 8 10 9 9 9 9 8 8 8 8 7 8 7 6 6 7 7 6 6 6 6 6 5 5 4 3 2 -1 -7
10 11 10 11 11 10 9 8 8 9 9 9 9 9 9 8 7 7 6 7 7 7 6 7 7 6 6 6 6 6 5 4 3 3 1 -0 -5 -7
10 10 9 10 10 10 9 9 9 10 10 10 9 9 9 8 7 6 5 5 4 5 5 6 6 6 6 6 5 4 3 3 2 0 -1 -4 -5 -13
10 10 10 10 10 10 10 10 10 9 9 9 9 9 8 8 8 6 5 5 6 6 5 3 3 3 3 2 2 2 2 1 1 -1 -2 -4 -12 -18
9 9 10 9 10 10 9 9 9 9 9 8 9 8 8 8 8 8 7 4 3 3 4 3 2 0 0 0 -0 -0 -1 -0 -1 -1 -2 -9 -14 -23
9 9 9 8 6 9 9 9 9 8 9 9 9 8 8 8 8 6 4 3 1 1 2 3 1 -2 -2 -2 -3 -3 -2 -3 -3 -3 -5 -10 -21 -25
7 9 9 9 9 9 9 9 9 8 8 9 9 9 9 8 8 7 6 5 2 -0 0 1 2 -1 -6 -5 -5 -5 -5 -5 -5 -5 -8 -14 -24 -23
8 8 8 8 9 9 9 9 8 8 9 9 9 9 8 7 6 5 4 4 3 2 3 3 2 -1 -2 -4 -6 -6 -6 -6 -6 -8 -15 -24 -23 -22
7 8 8 8 8 9 9 9 9 9 9 9 8 8 7 5 4 4 2 1 1 2 3 0 1 0 -1 -2 -5 -8 -8 -7 -7 -13 -21 -22 -21 -21
6 7 7 7 8 8 9 9 8 8 8 8 8 7 6 5 4 3 0 -0 -1 -1 -0 0 -0 -1 -0 1 -2 -7 -8 -7 -10 -19 -19 -18 -18 -18
4 5 6 6 7 7 7 8 8 8 7 7 7 5 4 2 1 0 -1 -1 -2 -2 -1 -2 -2 -1 -2 -3 -3 -5 -6 -9 -20 -18 -17 -17 -17 -18
-0 1 3 3 4 5 5 7 7 6 6 5 4 3 1 0 -1 -2 -2 -2 -2 -2 -3 -4 -4 -4 -4 -4 -6 -8 -13 -22 -21 -18 -16 -17 -17 -18
-3 -2 0 1 1 2 4 4 4 4 3 3 2 0 -1 -2 -3 -4 -3 -3 -2 -4 -5 -6 -6 -6 -7 -12 -16 -23 -23 -20 -18 -16 -16 -17 -18 -19
-4 -3 -2 -1 -1 -1 1 0 1 0 0 1 0 -2 -2 -3 -4 -4 -5 -4 -4 -5 -6 -7 -6 -5 -8 -16 -16 -17 -19 -18 -17 -17 -17 -18 -19 -19
-6 -5 -4 -4 -3 -3 -3 -4 -3 -3 -2 -3 -3 -4 -4 -4 -5 -5 -5 -5 -6 -7 -7 -9 -14 -16 -21 -21 -17 -15 -14 -16 -17 -17 -18 -18 -18 -18
-8 -8 -7 -6 -6 -7 -7 -6 -5 -6 -6 -5 -5 -5 -5 -5 -6 -6 -6 -7 -8 -13 -22 -20 -20 -20 -22 -23 -19 -15 -15 -17 -18 -18 -19 -18 -17 -17
-10 -10 -9 -9 -8 -8 -8 -8 -8 -9 -8 -8 -7 -7 -7 -7 -7 -9 -14 -23 -25 -24 -23 -21 -21 -22 -24 -25 -22 -20 -19 -20 -21 -21 -19 -19 -18 -11
-12 -12 -11 -11 -10 -10 -9 -9 -9 -9 -9 -9 -9 -9 -9 -9 -10 -10 -11 -16 -26 -27 -27 -28 -28 -27 -28 -26 -25 -23 -23 -22 -23 -22 -21 -19 -18 -17

GFSNE_850_dewp_144.txt.gz
Dewpoint
11 12 12 12 11 11 11 11 10 11 10 9 8 7 8 8 7 8 7 6 4 3 4 5 6 5 5 4 5 7 7 7 7 6 5 6 6 6
11 12 11 12 12 11 11 11 11 10 10 10 10 9 8 7 8 8 8 8 6 3 3 3 4 5 5 5 6 7 7 7 6 7 6 6 6 6
12 12 11 11 11 11 11 11 11 11 10 10 10 10 8 7 8 7 8 9 7 4 4 3 4 3 5 6 7 7 7 7 7 7 6 6 6 5
11 11 11 11 11 11 11 11 11 11 11 11 10 10 9 8 8 8 8 9 9 6 5 5 4 3 3 6 6 7 7 7 6 6 6 6 5 4
11 11 11 11 11 11 11 11 11 11 11 11 10 10 10 9 9 9 8 9 9 8 7 7 6 5 3 5 6 7 7 6 6 6 6 5 5 4
10 10 11 11 11 11 11 11 11 11 11 11 10 10 9 9 9 9 9 9 9 8 8 5 7 7 5 5 5 6 6 6 6 6 6 5 4 2
10 10 10 11 10 11 11 11 11 11 10 10 10 9 9 9 9 8 8 8 8 7 8 7 7 7 7 6 6 6 6 5 6 6 5 4 3 3
8 9 10 10 10 10 11 11 11 11 10 9 8 9 10 9 8 9 9 7 5 6 6 6 7 7 7 7 7 7 6 6 6 5 4 4 2 2
7 9 8 9 10 7 11 10 10 10 9 8 8 8 9 9 9 9 9 8 7 6 5 4 4 5 6 6 6 6 6 6 5 2 2 2 0 -0
5 7 8 9 8 8 10 10 10 10 10 9 9 9 9 9 9 9 8 7 5 3 3 2 2 0 2 4 3 2 2 1 1 1 0 -1 -1 -3
4 7 8 8 9 9 9 10 10 9 10 9 9 9 9 9 9 8 8 7 3 3 2 1 0 -1 -2 -1 -0 -1 -1 -0 -1 -1 -1 -2 -2 -7
1 4 7 8 8 9 9 9 9 8 10 9 9 9 9 9 8 8 8 8 5 2 2 1 0 -1 -4 -4 -2 -2 -3 -3 -3 -3 -3 -4 -7 -9
1 1 4 7 8 9 8 9 8 7 9 9 9 9 9 8 8 8 8 7 6 5 5 2 -0 -1 -2 -5 -6 -5 -4 -5 -5 -5 -6 -7 -8 -9
1 2 3 6 8 8 8 8 8 9 9 9 9 9 9 8 8 8 7 5 3 3 3 1 0 -0 -2 -4 -6 -7 -6 -6 -6 -7 -8 -8 -9 -12
1 2 3 5 7 7 8 8 8 9 9 9 9 9 9 8 8 6 5 3 1 0 -0 -0 0 -0 -2 -1 -3 -8 -8 -8 -8 -8 -9 -8 -11 -20
-0 1 2 4 5 7 7 8 7 7 8 7 8 8 8 8 6 4 3 2 -1 -1 -1 -2 -1 -2 -2 -3 -2 -4 -7 -8 -9 -8 -8 -10 -16 -14
-2 -2 -0 1 2 3 4 5 6 7 7 6 7 6 6 5 3 2 1 0 -1 -2 -2 -3 -4 -4 -4 -3 -4 -6 -8 -7 -8 -8 -9 -14 -16 -17
-4 -4 -3 -2 -1 -0 1 2 2 4 6 5 4 4 5 4 2 0 -1 -2 -2 -3 -4 -4 -5 -6 -6 -7 -7 -7 -8 -7 -8 -10 -13 -12 -13 -13
-7 -6 -5 -4 -3 -2 -1 0 -1 -1 1 1 0 2 2 1 -1 -2 -3 -4 -4 -4 -5 -6 -6 -6 -6 -8 -9 -8 -8 -10 -13 -12 -11 -11 -10 -10
-8 -8 -7 -6 -5 -4 -3 -2 -2 -2 -2 -1 -2 -1 -1 -1 -3 -4 -5 -5 -5 -6 -7 -8 -7 -7 -6 -8 -10 -10 -10 -13 -12 -12 -14 -14 -12 -11
-10 -9 -9 -8 -7 -6 -5 -5 -4 -5 -4 -5 -5 -5 -4 -4 -5 -5 -6 -6 -7 -8 -9 -9 -9 -8 -8 -8 -10 -12 -12 -12 -11 -11 -14 -12 -11 -11
-11 -11 -10 -10 -10 -9 -8 -8 -7 -7 -8 -8 -8 -8 -7 -6 -6 -7 -8 -9 -9 -9 -9 -10 -13 -15 -14 -14 -12 -14 -13 -14 -17 -18 -20 -16 -10 -10
-13 -12 -12 -12 -11 -11 -10 -10 -9 -9 -9 -9 -9 -9 -10 -9 -9 -10 -10 -9 -10 -12 -14 -12 -12 -14 -15 -15 -14 -13 -17 -18 -19 -20 -21 -21 -20 -17